Year,Month,Day,Hour,Minute,Value (Times are PST for temperature in C)
2018,07,15,00,00,16.90
2018,07,15,00,01,16.90
2018,07,15,00,02,16.90
2018,07,15,00,03,16.90
2018,07,15,00,04,16.90
2018,07,15,00,05,16.80
2018,07,15,00,06,16.80
2018,07,15,00,07,16.80
2018,07,15,00,08,16.80
2018,07,15,00,09,16.70
2018,07,15,00,10,16.70
2018,07,15,00,11,16.70
2018,07,15,00,12,16.70
2018,07,15,00,13,16.60
2018,07,15,00,14,16.60
2018,07,15,00,15,16.60
2018,07,15,00,16,16.60
2018,07,15,00,17,16.60
2018,07,15,00,18,16.50
2018,07,15,00,19,16.50
2018,07,15,00,20,16.50
2018,07,15,00,21,16.50
2018,07,15,00,22,16.40
2018,07,15,00,23,16.40
2018,07,15,00,24,16.40
2018,07,15,00,25,16.30
2018,07,15,00,26,16.30
2018,07,15,00,27,16.30
2018,07,15,00,28,16.30
2018,07,15,00,29,16.20
2018,07,15,00,30,16.20
2018,07,15,00,31,16.20
2018,07,15,00,32,16.20
2018,07,15,00,33,16.20
2018,07,15,00,34,16.20
2018,07,15,00,35,16.20
2018,07,15,00,36,16.10
2018,07,15,00,37,16.10
2018,07,15,00,38,16.10
2018,07,15,00,39,16.10
2018,07,15,00,40,16.10
2018,07,15,00,41,16.10
2018,07,15,00,42,16.00
2018,07,15,00,43,16.00
2018,07,15,00,44,15.90
2018,07,15,00,45,15.90
2018,07,15,00,46,15.90
2018,07,15,00,47,15.90
2018,07,15,00,48,15.90
2018,07,15,00,49,15.90
2018,07,15,00,50,15.80
2018,07,15,00,51,15.80
2018,07,15,00,52,15.80
2018,07,15,00,53,15.80
2018,07,15,00,54,15.80
2018,07,15,00,55,15.70
2018,07,15,00,56,15.70
2018,07,15,00,57,15.70
2018,07,15,00,58,15.70
2018,07,15,00,59,15.70
2018,07,15,01,00,15.60
2018,07,15,01,01,15.60
2018,07,15,01,02,15.60
2018,07,15,01,03,15.60
2018,07,15,01,04,15.60
2018,07,15,01,05,15.50
2018,07,15,01,06,15.50
2018,07,15,01,07,15.50
2018,07,15,01,08,15.50
2018,07,15,01,09,15.40
2018,07,15,01,10,15.40
2018,07,15,01,11,15.40
2018,07,15,01,12,15.40
2018,07,15,01,13,15.40
2018,07,15,01,14,15.40
2018,07,15,01,15,15.40
2018,07,15,01,16,15.30
2018,07,15,01,17,15.30
2018,07,15,01,18,15.30
2018,07,15,01,19,15.30
2018,07,15,01,20,15.30
2018,07,15,01,21,15.30
2018,07,15,01,22,15.20
2018,07,15,01,23,15.20
2018,07,15,01,24,15.20
2018,07,15,01,25,15.20
2018,07,15,01,26,15.20
2018,07,15,01,27,15.20
2018,07,15,01,28,15.20
2018,07,15,01,29,15.10
2018,07,15,01,30,15.10
2018,07,15,01,31,15.10
2018,07,15,01,32,15.10
2018,07,15,01,33,15.10
2018,07,15,01,34,15.00
2018,07,15,01,35,15.00
2018,07,15,01,36,15.00
2018,07,15,01,37,15.00
2018,07,15,01,38,15.00
2018,07,15,01,39,14.90
2018,07,15,01,40,14.90
2018,07,15,01,41,14.90
2018,07,15,01,42,14.90
2018,07,15,01,43,14.90
2018,07,15,01,44,14.80
2018,07,15,01,45,14.80
2018,07,15,01,46,14.80
2018,07,15,01,47,14.80
2018,07,15,01,48,14.80
2018,07,15,01,49,14.70
2018,07,15,01,50,14.70
2018,07,15,01,51,14.70
2018,07,15,01,52,14.70
2018,07,15,01,53,14.70
2018,07,15,01,54,14.60
2018,07,15,01,55,14.60
2018,07,15,01,56,14.60
2018,07,15,01,57,14.60
2018,07,15,01,58,14.50
2018,07,15,01,59,14.50
2018,07,15,02,00,14.50
2018,07,15,02,01,14.50
2018,07,15,02,02,14.40
2018,07,15,02,03,14.40
2018,07,15,02,04,14.40
2018,07,15,02,05,14.40
2018,07,15,02,06,14.40
2018,07,15,02,07,14.40
2018,07,15,02,08,14.30
2018,07,15,02,09,14.30
2018,07,15,02,10,14.30
2018,07,15,02,11,14.30
2018,07,15,02,12,14.30
2018,07,15,02,13,14.30
2018,07,15,02,14,14.30
2018,07,15,02,15,14.30
2018,07,15,02,16,14.30
2018,07,15,02,17,14.30
2018,07,15,02,18,14.30
2018,07,15,02,19,14.20
2018,07,15,02,20,14.20
2018,07,15,02,21,14.20
2018,07,15,02,22,14.20
2018,07,15,02,23,14.20
2018,07,15,02,24,14.20
2018,07,15,02,25,14.10
2018,07,15,02,26,14.10
2018,07,15,02,27,14.10
2018,07,15,02,28,14.10
2018,07,15,02,29,14.10
2018,07,15,02,30,14.10
2018,07,15,02,31,14.00
2018,07,15,02,32,14.00
2018,07,15,02,33,14.00
2018,07,15,02,34,14.00
2018,07,15,02,35,14.00
2018,07,15,02,36,13.90
2018,07,15,02,37,13.90
2018,07,15,02,38,13.90
2018,07,15,02,39,13.90
2018,07,15,02,40,13.90
2018,07,15,02,41,13.80
2018,07,15,02,42,13.80
2018,07,15,02,43,13.80
2018,07,15,02,44,13.80
2018,07,15,02,45,13.80
2018,07,15,02,46,13.80
2018,07,15,02,47,13.80
2018,07,15,02,48,13.80
2018,07,15,02,49,13.70
2018,07,15,02,50,13.70
2018,07,15,02,51,13.70
2018,07,15,02,52,13.70
2018,07,15,02,53,13.70
2018,07,15,02,54,13.70
2018,07,15,02,55,13.70
2018,07,15,02,56,13.70
2018,07,15,02,57,13.60
2018,07,15,02,58,13.60
2018,07,15,02,59,13.60
2018,07,15,03,00,13.60
2018,07,15,03,01,13.60
2018,07,15,03,02,13.60
2018,07,15,03,03,13.60
2018,07,15,03,04,13.50
2018,07,15,03,05,13.50
2018,07,15,03,06,13.50
2018,07,15,03,07,13.50
2018,07,15,03,08,13.50
2018,07,15,03,09,13.40
2018,07,15,03,10,13.40
2018,07,15,03,11,13.40
2018,07,15,03,12,13.40
2018,07,15,03,13,13.40
2018,07,15,03,14,13.40
2018,07,15,03,15,13.40
2018,07,15,03,16,13.30
2018,07,15,03,17,13.30
2018,07,15,03,18,13.30
2018,07,15,03,19,13.30
2018,07,15,03,20,13.30
2018,07,15,03,21,13.30
2018,07,15,03,22,13.30
2018,07,15,03,23,13.30
2018,07,15,03,24,13.30
2018,07,15,03,25,13.30
2018,07,15,03,26,13.20
2018,07,15,03,27,13.20
2018,07,15,03,28,13.20
2018,07,15,03,29,13.20
2018,07,15,03,30,13.20
2018,07,15,03,31,13.20
2018,07,15,03,32,13.20
2018,07,15,03,33,13.20
2018,07,15,03,34,13.10
2018,07,15,03,35,13.10
2018,07,15,03,36,13.10
2018,07,15,03,37,13.10
2018,07,15,03,38,13.10
2018,07,15,03,39,13.10
2018,07,15,03,40,13.10
2018,07,15,03,41,13.10
2018,07,15,03,42,13.10
2018,07,15,03,43,13.00
2018,07,15,03,44,13.00
2018,07,15,03,45,13.00
2018,07,15,03,46,13.00
2018,07,15,03,47,13.00
2018,07,15,03,48,13.00
2018,07,15,03,49,12.90
2018,07,15,03,50,12.90
2018,07,15,03,51,12.90
2018,07,15,03,52,12.90
2018,07,15,03,53,12.90
2018,07,15,03,54,12.90
2018,07,15,03,55,12.90
2018,07,15,03,56,12.90
2018,07,15,03,57,12.90
2018,07,15,03,58,12.80
2018,07,15,03,59,12.80
2018,07,15,04,00,12.80
2018,07,15,04,01,12.80
2018,07,15,04,02,12.80
2018,07,15,04,03,12.80
2018,07,15,04,04,12.80
2018,07,15,04,05,12.80
2018,07,15,04,06,12.80
2018,07,15,04,07,12.70
2018,07,15,04,08,12.70
2018,07,15,04,09,12.70
2018,07,15,04,10,12.70
2018,07,15,04,11,12.70
2018,07,15,04,12,12.70
2018,07,15,04,13,12.70
2018,07,15,04,14,12.60
2018,07,15,04,15,12.60
2018,07,15,04,16,12.60
2018,07,15,04,17,12.60
2018,07,15,04,18,12.60
2018,07,15,04,19,12.50
2018,07,15,04,20,12.50
2018,07,15,04,21,12.50
2018,07,15,04,22,12.50
2018,07,15,04,23,12.40
2018,07,15,04,24,12.40
2018,07,15,04,25,12.40
2018,07,15,04,26,12.40
2018,07,15,04,27,12.40
2018,07,15,04,28,12.40
2018,07,15,04,29,12.40
2018,07,15,04,30,12.30
2018,07,15,04,31,12.30
2018,07,15,04,32,12.30
2018,07,15,04,33,12.30
2018,07,15,04,34,12.30
2018,07,15,04,35,12.30
2018,07,15,04,36,12.30
2018,07,15,04,37,12.30
2018,07,15,04,38,12.30
2018,07,15,04,39,12.30
2018,07,15,04,40,12.30
2018,07,15,04,41,12.30
2018,07,15,04,42,12.30
2018,07,15,04,43,12.20
2018,07,15,04,44,12.20
2018,07,15,04,45,12.20
2018,07,15,04,46,12.20
2018,07,15,04,47,12.20
2018,07,15,04,48,12.20
2018,07,15,04,49,12.20
2018,07,15,04,50,12.20
2018,07,15,04,51,12.10
2018,07,15,04,52,12.10
2018,07,15,04,53,12.10
2018,07,15,04,54,12.10
2018,07,15,04,55,12.10
2018,07,15,04,56,12.10
2018,07,15,04,57,12.10
2018,07,15,04,58,12.10
2018,07,15,04,59,12.00
2018,07,15,05,00,12.00
2018,07,15,05,01,12.00
2018,07,15,05,02,12.00
2018,07,15,05,03,11.90
2018,07,15,05,04,11.90
2018,07,15,05,05,11.90
2018,07,15,05,06,11.90
2018,07,15,05,07,11.90
2018,07,15,05,08,11.90
2018,07,15,05,09,11.90
2018,07,15,05,10,11.90
2018,07,15,05,11,11.90
2018,07,15,05,12,11.90
2018,07,15,05,13,11.90
2018,07,15,05,14,11.80
2018,07,15,05,15,11.80
2018,07,15,05,16,11.80
2018,07,15,05,17,11.80
2018,07,15,05,18,11.80
2018,07,15,05,19,11.80
2018,07,15,05,20,11.80
2018,07,15,05,21,11.80
2018,07,15,05,22,11.80
2018,07,15,05,23,11.80
2018,07,15,05,24,11.80
2018,07,15,05,25,11.80
2018,07,15,05,26,11.80
2018,07,15,05,27,11.70
2018,07,15,05,28,11.70
2018,07,15,05,29,11.70
2018,07,15,05,30,11.70
2018,07,15,05,31,11.70
2018,07,15,05,32,11.70
2018,07,15,05,33,11.70
2018,07,15,05,34,11.70
2018,07,15,05,35,11.70
2018,07,15,05,36,11.70
2018,07,15,05,37,11.70
2018,07,15,05,38,11.70
2018,07,15,05,39,11.70
2018,07,15,05,40,11.70
2018,07,15,05,41,11.70
2018,07,15,05,42,11.70
2018,07,15,05,43,11.70
2018,07,15,05,44,11.70
2018,07,15,05,45,11.70
2018,07,15,05,46,11.70
2018,07,15,05,47,11.60
2018,07,15,05,48,11.60
2018,07,15,05,49,11.60
2018,07,15,05,50,11.60
2018,07,15,05,51,11.60
2018,07,15,05,52,11.60
2018,07,15,05,53,11.60
2018,07,15,05,54,11.60
2018,07,15,05,55,11.60
2018,07,15,05,56,11.60
2018,07,15,05,57,11.60
2018,07,15,05,58,11.60
2018,07,15,05,59,11.60
2018,07,15,06,00,11.60
2018,07,15,06,01,11.60
2018,07,15,06,02,11.60
2018,07,15,06,03,11.60
2018,07,15,06,04,11.60
2018,07,15,06,05,11.50
2018,07,15,06,06,11.50
2018,07,15,06,07,11.50
2018,07,15,06,08,11.50
2018,07,15,06,09,11.50
2018,07,15,06,10,11.50
2018,07,15,06,11,11.50
2018,07,15,06,12,11.50
2018,07,15,06,13,11.40
2018,07,15,06,14,11.40
2018,07,15,06,15,11.40
2018,07,15,06,16,11.40
2018,07,15,06,17,11.40
2018,07,15,06,18,11.40
2018,07,15,06,19,11.40
2018,07,15,06,20,11.40
2018,07,15,06,21,11.40
2018,07,15,06,22,11.40
2018,07,15,06,23,11.40
2018,07,15,06,24,11.40
2018,07,15,06,25,11.40
2018,07,15,06,26,11.40
2018,07,15,06,27,11.40
2018,07,15,06,28,11.40
2018,07,15,06,29,11.50
2018,07,15,06,30,11.50
2018,07,15,06,31,11.50
2018,07,15,06,32,11.50
2018,07,15,06,33,11.50
2018,07,15,06,34,11.50
2018,07,15,06,35,11.50
2018,07,15,06,36,11.50
2018,07,15,06,37,11.50
2018,07,15,06,38,11.50
2018,07,15,06,39,11.50
2018,07,15,06,40,11.50
2018,07,15,06,41,11.50
2018,07,15,06,42,11.50
2018,07,15,06,43,11.50
2018,07,15,06,44,11.50
2018,07,15,06,45,11.50
2018,07,15,06,46,11.50
2018,07,15,06,47,11.50
2018,07,15,06,48,11.50
2018,07,15,06,49,11.50
2018,07,15,06,50,11.50
2018,07,15,06,51,11.50
2018,07,15,06,52,11.50
2018,07,15,06,53,11.50
2018,07,15,06,54,11.50
2018,07,15,06,55,11.50
2018,07,15,06,56,11.50
2018,07,15,06,57,11.60
2018,07,15,06,58,11.60
2018,07,15,06,59,11.60
2018,07,15,07,00,11.60
2018,07,15,07,01,11.70
2018,07,15,07,02,11.70
2018,07,15,07,03,11.80
2018,07,15,07,04,11.80
2018,07,15,07,05,11.90
2018,07,15,07,06,12.00
2018,07,15,07,07,12.00
2018,07,15,07,08,12.10
2018,07,15,07,09,12.20
2018,07,15,07,10,12.30
2018,07,15,07,11,12.30
2018,07,15,07,12,12.40
2018,07,15,07,13,12.40
2018,07,15,07,14,12.40
2018,07,15,07,15,12.50
2018,07,15,07,16,12.50
2018,07,15,07,17,12.60
2018,07,15,07,18,12.60
2018,07,15,07,19,12.60
2018,07,15,07,20,12.70
2018,07,15,07,21,12.70
2018,07,15,07,22,12.70
2018,07,15,07,23,12.80
2018,07,15,07,24,12.80
2018,07,15,07,25,12.90
2018,07,15,07,26,12.90
2018,07,15,07,27,13.00
2018,07,15,07,28,13.10
2018,07,15,07,29,13.10
2018,07,15,07,30,13.10
2018,07,15,07,31,13.10
2018,07,15,07,32,13.20
2018,07,15,07,33,13.20
2018,07,15,07,34,13.30
2018,07,15,07,35,13.30
2018,07,15,07,36,13.40
2018,07,15,07,37,13.40
2018,07,15,07,38,13.40
2018,07,15,07,39,13.50
2018,07,15,07,40,13.50
2018,07,15,07,41,13.60
2018,07,15,07,42,13.60
2018,07,15,07,43,13.70
2018,07,15,07,44,13.80
2018,07,15,07,45,13.80
2018,07,15,07,46,13.90
2018,07,15,07,47,13.90
2018,07,15,07,48,14.00
2018,07,15,07,49,14.00
2018,07,15,07,50,14.10
2018,07,15,07,51,14.10
2018,07,15,07,52,14.20
2018,07,15,07,53,14.20
2018,07,15,07,54,14.30
2018,07,15,07,55,14.30
2018,07,15,07,56,14.40
2018,07,15,07,57,14.50
2018,07,15,07,58,14.60
2018,07,15,07,59,14.60
2018,07,15,08,00,14.70
2018,07,15,08,01,14.70
2018,07,15,08,02,14.70
2018,07,15,08,03,14.80
2018,07,15,08,04,14.80
2018,07,15,08,05,14.80
2018,07,15,08,06,14.90
2018,07,15,08,07,14.90
2018,07,15,08,08,15.00
2018,07,15,08,09,15.00
2018,07,15,08,10,15.10
2018,07,15,08,11,15.20
2018,07,15,08,12,15.30
2018,07,15,08,13,15.40
2018,07,15,08,14,15.50
2018,07,15,08,15,15.60
2018,07,15,08,16,15.60
2018,07,15,08,17,15.70
2018,07,15,08,18,15.80
2018,07,15,08,19,15.80
2018,07,15,08,20,15.90
2018,07,15,08,21,15.90
2018,07,15,08,22,16.00
2018,07,15,08,23,16.00
2018,07,15,08,24,16.00
2018,07,15,08,25,16.10
2018,07,15,08,26,16.10
2018,07,15,08,27,16.10
2018,07,15,08,28,16.20
2018,07,15,08,29,16.20
2018,07,15,08,30,16.20
2018,07,15,08,31,16.20
2018,07,15,08,32,16.30
2018,07,15,08,33,16.30
2018,07,15,08,34,16.30
2018,07,15,08,35,16.30
2018,07,15,08,36,16.30
2018,07,15,08,37,16.40
2018,07,15,08,38,16.40
2018,07,15,08,39,16.50
2018,07,15,08,40,16.50
2018,07,15,08,41,16.60
2018,07,15,08,42,16.70
2018,07,15,08,43,16.80
2018,07,15,08,44,16.90
2018,07,15,08,45,17.00
2018,07,15,08,46,17.00
2018,07,15,08,47,17.00
2018,07,15,08,48,17.10
2018,07,15,08,49,17.10
2018,07,15,08,50,17.10
2018,07,15,08,51,17.20
2018,07,15,08,52,17.20
2018,07,15,08,53,17.30
2018,07,15,08,54,17.30
2018,07,15,08,55,17.40
2018,07,15,08,56,17.40
2018,07,15,08,57,17.40
2018,07,15,08,58,17.50
2018,07,15,08,59,17.50
2018,07,15,09,00,17.60
2018,07,15,09,01,17.60
2018,07,15,09,02,17.60
2018,07,15,09,03,17.60
2018,07,15,09,04,17.60
2018,07,15,09,05,17.70
2018,07,15,09,06,17.70
2018,07,15,09,07,17.80
2018,07,15,09,08,17.80
2018,07,15,09,09,17.80
2018,07,15,09,10,17.80
2018,07,15,09,11,17.80
2018,07,15,09,12,17.80
2018,07,15,09,13,17.80
2018,07,15,09,14,17.80
2018,07,15,09,15,17.90
2018,07,15,09,16,18.00
2018,07,15,09,17,18.00
2018,07,15,09,18,18.00
2018,07,15,09,19,18.10
2018,07,15,09,20,18.10
2018,07,15,09,21,18.20
2018,07,15,09,22,18.20
2018,07,15,09,23,18.30
2018,07,15,09,24,18.30
2018,07,15,09,25,18.40
2018,07,15,09,26,18.40
2018,07,15,09,27,18.50
2018,07,15,09,28,18.60
2018,07,15,09,29,18.70
2018,07,15,09,30,18.80
2018,07,15,09,31,18.90
2018,07,15,09,32,19.00
2018,07,15,09,33,19.00
2018,07,15,09,34,19.10
2018,07,15,09,35,19.20
2018,07,15,09,36,19.30
2018,07,15,09,37,19.40
2018,07,15,09,38,19.40
2018,07,15,09,39,19.50
2018,07,15,09,40,19.60
2018,07,15,09,41,19.60
2018,07,15,09,42,19.60
2018,07,15,09,43,19.60
2018,07,15,09,44,19.60
2018,07,15,09,45,19.60
2018,07,15,09,46,19.60
2018,07,15,09,47,19.60
2018,07,15,09,48,19.60
2018,07,15,09,49,19.60
2018,07,15,09,50,19.60
2018,07,15,09,51,19.70
2018,07,15,09,52,19.80
2018,07,15,09,53,19.80
2018,07,15,09,54,19.80
2018,07,15,09,55,19.90
2018,07,15,09,56,19.90
2018,07,15,09,57,19.90
2018,07,15,09,58,19.90
2018,07,15,09,59,19.90
2018,07,15,10,00,20.00
2018,07,15,10,01,20.10
2018,07,15,10,02,20.20
2018,07,15,10,03,20.20
2018,07,15,10,04,20.20
2018,07,15,10,05,20.20
2018,07,15,10,06,20.20
2018,07,15,10,07,20.20
2018,07,15,10,08,20.20
2018,07,15,10,09,20.20
2018,07,15,10,10,20.20
2018,07,15,10,11,20.20
2018,07,15,10,12,20.30
2018,07,15,10,13,20.40
2018,07,15,10,14,20.50
2018,07,15,10,15,20.50
2018,07,15,10,16,20.60
2018,07,15,10,17,20.60
2018,07,15,10,18,20.60
2018,07,15,10,19,20.70
2018,07,15,10,20,20.80
2018,07,15,10,21,20.80
2018,07,15,10,22,20.80
2018,07,15,10,23,20.90
2018,07,15,10,24,21.00
2018,07,15,10,25,21.10
2018,07,15,10,26,21.20
2018,07,15,10,27,21.20
2018,07,15,10,28,21.20
2018,07,15,10,29,21.20
2018,07,15,10,30,21.20
2018,07,15,10,31,21.20
2018,07,15,10,32,21.20
2018,07,15,10,33,21.30
2018,07,15,10,34,21.30
2018,07,15,10,35,21.30
2018,07,15,10,36,21.40
2018,07,15,10,37,21.40
2018,07,15,10,38,21.40
2018,07,15,10,39,21.40
2018,07,15,10,40,21.50
2018,07,15,10,41,21.50
2018,07,15,10,42,21.60
2018,07,15,10,43,21.70
2018,07,15,10,44,21.70
2018,07,15,10,45,21.80
2018,07,15,10,46,21.80
2018,07,15,10,47,21.80
2018,07,15,10,48,21.90
2018,07,15,10,49,22.10
2018,07,15,10,50,22.20
2018,07,15,10,51,22.20
2018,07,15,10,52,22.30
2018,07,15,10,53,22.30
2018,07,15,10,54,22.30
2018,07,15,10,55,22.40
2018,07,15,10,56,22.50
2018,07,15,10,57,22.60
2018,07,15,10,58,22.60
2018,07,15,10,59,22.70
2018,07,15,11,00,22.70
2018,07,15,11,01,22.70
2018,07,15,11,02,22.70
2018,07,15,11,03,22.80
2018,07,15,11,04,22.80
2018,07,15,11,05,22.90
2018,07,15,11,06,22.90
2018,07,15,11,07,23.00
2018,07,15,11,08,23.00
2018,07,15,11,09,23.10
2018,07,15,11,10,23.10
2018,07,15,11,11,23.10
2018,07,15,11,12,23.20
2018,07,15,11,13,23.20
2018,07,15,11,14,23.30
2018,07,15,11,15,23.40
2018,07,15,11,16,23.50
2018,07,15,11,17,23.60
2018,07,15,11,18,23.60
2018,07,15,11,19,23.70
2018,07,15,11,20,23.70
2018,07,15,11,21,23.80
2018,07,15,11,22,23.90
2018,07,15,11,23,24.10
2018,07,15,11,24,24.20
2018,07,15,11,25,24.30
2018,07,15,11,26,24.40
2018,07,15,11,27,24.40
2018,07,15,11,28,24.50
2018,07,15,11,29,24.40
2018,07,15,11,30,24.40
2018,07,15,11,31,24.40
2018,07,15,11,32,24.40
2018,07,15,11,33,24.50
2018,07,15,11,34,24.60
2018,07,15,11,35,24.60
2018,07,15,11,36,24.70
2018,07,15,11,37,24.80
2018,07,15,11,38,24.90
2018,07,15,11,39,24.90
2018,07,15,11,40,25.00
2018,07,15,11,41,25.10
2018,07,15,11,42,25.20
2018,07,15,11,43,25.20
2018,07,15,11,44,25.20
2018,07,15,11,45,25.20
2018,07,15,11,46,25.10
2018,07,15,11,47,25.10
2018,07,15,11,48,25.10
2018,07,15,11,49,25.20
2018,07,15,11,50,25.30
2018,07,15,11,51,25.40
2018,07,15,11,52,25.50
2018,07,15,11,53,25.60
2018,07,15,11,54,25.70
2018,07,15,11,55,25.70
2018,07,15,11,56,25.80
2018,07,15,11,57,25.80
2018,07,15,11,58,25.90
2018,07,15,11,59,25.90
2018,07,15,12,00,25.90
2018,07,15,12,01,26.00
2018,07,15,12,02,26.10
2018,07,15,12,03,26.20
2018,07,15,12,04,26.30
2018,07,15,12,05,26.40
2018,07,15,12,06,26.50
2018,07,15,12,07,26.60
2018,07,15,12,08,26.70
2018,07,15,12,09,26.80
2018,07,15,12,10,26.80
2018,07,15,12,11,26.80
2018,07,15,12,12,26.90
2018,07,15,12,13,26.90
2018,07,15,12,14,26.90
2018,07,15,12,15,26.90
2018,07,15,12,16,26.90
2018,07,15,12,17,26.90
2018,07,15,12,18,27.00
2018,07,15,12,19,27.00
2018,07,15,12,20,27.00
2018,07,15,12,21,27.10
2018,07,15,12,22,27.10
2018,07,15,12,23,27.10
2018,07,15,12,24,27.20
2018,07,15,12,25,27.30
2018,07,15,12,26,27.50
2018,07,15,12,27,27.70
2018,07,15,12,28,27.80
2018,07,15,12,29,27.90
2018,07,15,12,30,28.00
2018,07,15,12,31,28.10
2018,07,15,12,32,28.20
2018,07,15,12,33,28.30
2018,07,15,12,34,28.30
2018,07,15,12,35,28.30
2018,07,15,12,36,28.30
2018,07,15,12,37,28.40
2018,07,15,12,38,28.40
2018,07,15,12,39,28.40
2018,07,15,12,40,28.50
2018,07,15,12,41,28.60
2018,07,15,12,42,28.60
2018,07,15,12,43,28.70
2018,07,15,12,44,28.80
2018,07,15,12,45,28.90
2018,07,15,12,46,29.00
2018,07,15,12,47,29.10
2018,07,15,12,48,29.20
2018,07,15,12,49,29.30
2018,07,15,12,50,29.30
2018,07,15,12,51,29.40
2018,07,15,12,52,29.40
2018,07,15,12,53,29.40
2018,07,15,12,54,29.50
2018,07,15,12,55,29.60
2018,07,15,12,56,29.70
2018,07,15,12,57,29.80
2018,07,15,12,58,29.80
2018,07,15,12,59,29.80
2018,07,15,13,00,29.70
2018,07,15,13,01,29.70
2018,07,15,13,02,29.60
2018,07,15,13,03,29.60
2018,07,15,13,04,29.50
2018,07,15,13,05,29.50
2018,07,15,13,06,29.50
2018,07,15,13,07,29.50
2018,07,15,13,08,29.60
2018,07,15,13,09,29.70
2018,07,15,13,10,29.70
2018,07,15,13,11,29.80
2018,07,15,13,12,29.80
2018,07,15,13,13,29.80
2018,07,15,13,14,29.80
2018,07,15,13,15,29.90
2018,07,15,13,16,30.00
2018,07,15,13,17,30.10
2018,07,15,13,18,30.20
2018,07,15,13,19,30.30
2018,07,15,13,20,30.50
2018,07,15,13,21,30.60
2018,07,15,13,22,30.70
2018,07,15,13,23,30.80
2018,07,15,13,24,30.90
2018,07,15,13,25,30.90
2018,07,15,13,26,30.90
2018,07,15,13,27,31.00
2018,07,15,13,28,31.10
2018,07,15,13,29,31.10
2018,07,15,13,30,31.10
2018,07,15,13,31,31.20
2018,07,15,13,32,31.20
2018,07,15,13,33,31.10
2018,07,15,13,34,31.10
2018,07,15,13,35,31.10
2018,07,15,13,36,31.10
2018,07,15,13,37,31.10
2018,07,15,13,38,31.10
2018,07,15,13,39,31.20
2018,07,15,13,40,31.30
2018,07,15,13,41,31.30
2018,07,15,13,42,31.50
2018,07,15,13,43,31.60
2018,07,15,13,44,31.70
2018,07,15,13,45,31.70
2018,07,15,13,46,31.70
2018,07,15,13,47,31.80
2018,07,15,13,48,31.80
2018,07,15,13,49,31.90
2018,07,15,13,50,31.90
2018,07,15,13,51,31.90
2018,07,15,13,52,31.80
2018,07,15,13,53,31.80
2018,07,15,13,54,31.80
2018,07,15,13,55,31.80
2018,07,15,13,56,31.80
2018,07,15,13,57,31.80
2018,07,15,13,58,31.70
2018,07,15,13,59,31.60
2018,07,15,14,00,31.60
2018,07,15,14,01,31.60
2018,07,15,14,02,31.60
2018,07,15,14,03,31.70
2018,07,15,14,04,31.70
2018,07,15,14,05,31.70
2018,07,15,14,06,31.70
2018,07,15,14,07,31.80
2018,07,15,14,08,31.80
2018,07,15,14,09,31.90
2018,07,15,14,10,31.90
2018,07,15,14,11,32.00
2018,07,15,14,12,32.10
2018,07,15,14,13,32.10
2018,07,15,14,14,32.20
2018,07,15,14,15,32.30
2018,07,15,14,16,32.40
2018,07,15,14,17,32.50
2018,07,15,14,18,32.60
2018,07,15,14,19,32.70
2018,07,15,14,20,32.70
2018,07,15,14,21,32.70
2018,07,15,14,22,32.60
2018,07,15,14,23,32.50
2018,07,15,14,24,32.50
2018,07,15,14,25,32.40
2018,07,15,14,26,32.40
2018,07,15,14,27,32.40
2018,07,15,14,28,32.30
2018,07,15,14,29,32.30
2018,07,15,14,30,32.30
2018,07,15,14,31,32.30
2018,07,15,14,32,32.30
2018,07,15,14,33,32.40
2018,07,15,14,34,32.40
2018,07,15,14,35,32.50
2018,07,15,14,36,32.60
2018,07,15,14,37,32.70
2018,07,15,14,38,32.80
2018,07,15,14,39,32.80
2018,07,15,14,40,32.80
2018,07,15,14,41,32.80
2018,07,15,14,42,32.70
2018,07,15,14,43,32.70
2018,07,15,14,44,32.70
2018,07,15,14,45,32.60
2018,07,15,14,46,32.50
2018,07,15,14,47,32.50
2018,07,15,14,48,32.40
2018,07,15,14,49,32.50
2018,07,15,14,50,32.50
2018,07,15,14,51,32.60
2018,07,15,14,52,32.70
2018,07,15,14,53,32.80
2018,07,15,14,54,32.90
2018,07,15,14,55,33.00
2018,07,15,14,56,33.00
2018,07,15,14,57,33.10
2018,07,15,14,58,33.20
2018,07,15,14,59,33.30
2018,07,15,15,00,33.40
2018,07,15,15,01,33.50
2018,07,15,15,02,33.50
2018,07,15,15,03,33.60
2018,07,15,15,04,33.60
2018,07,15,15,05,33.60
2018,07,15,15,06,33.50
2018,07,15,15,07,33.50
2018,07,15,15,08,33.40
2018,07,15,15,09,33.40
2018,07,15,15,10,33.40
2018,07,15,15,11,33.40
2018,07,15,15,12,33.50
2018,07,15,15,13,33.60
2018,07,15,15,14,33.60
2018,07,15,15,15,33.50
2018,07,15,15,16,33.40
2018,07,15,15,17,33.30
2018,07,15,15,18,33.30
2018,07,15,15,19,33.20
2018,07,15,15,20,33.20
2018,07,15,15,21,33.10
2018,07,15,15,22,33.10
2018,07,15,15,23,33.10
2018,07,15,15,24,33.20
2018,07,15,15,25,33.20
2018,07,15,15,26,33.20
2018,07,15,15,27,33.20
2018,07,15,15,28,33.20
2018,07,15,15,29,33.30
2018,07,15,15,30,33.30
2018,07,15,15,31,33.30
2018,07,15,15,32,33.30
2018,07,15,15,33,33.30
2018,07,15,15,34,33.30
2018,07,15,15,35,33.30
2018,07,15,15,36,33.40
2018,07,15,15,37,33.40
2018,07,15,15,38,33.40
2018,07,15,15,39,33.40
2018,07,15,15,40,33.50
2018,07,15,15,41,33.60
2018,07,15,15,42,33.60
2018,07,15,15,43,33.60
2018,07,15,15,44,33.60
2018,07,15,15,45,33.60
2018,07,15,15,46,33.60
2018,07,15,15,47,33.60
2018,07,15,15,48,33.60
2018,07,15,15,49,33.70
2018,07,15,15,50,33.80
2018,07,15,15,51,33.90
2018,07,15,15,52,34.00
2018,07,15,15,53,34.10
2018,07,15,15,54,34.20
2018,07,15,15,55,34.20
2018,07,15,15,56,34.20
2018,07,15,15,57,34.20
2018,07,15,15,58,34.10
2018,07,15,15,59,34.10
2018,07,15,16,00,34.00
2018,07,15,16,01,34.00
2018,07,15,16,02,34.00
2018,07,15,16,03,34.00
2018,07,15,16,04,34.10
2018,07,15,16,05,34.10
2018,07,15,16,06,34.10
2018,07,15,16,07,33.90
2018,07,15,16,08,33.80
2018,07,15,16,09,33.60
2018,07,15,16,10,33.50
2018,07,15,16,11,33.50
2018,07,15,16,12,33.50
2018,07,15,16,13,33.40
2018,07,15,16,14,33.40
2018,07,15,16,15,33.40
2018,07,15,16,16,33.40
2018,07,15,16,17,33.40
2018,07,15,16,18,33.40
2018,07,15,16,19,33.40
2018,07,15,16,20,33.40
2018,07,15,16,21,33.40
2018,07,15,16,22,33.30
2018,07,15,16,23,33.30
2018,07,15,16,24,33.30
2018,07,15,16,25,33.20
2018,07,15,16,26,33.10
2018,07,15,16,27,33.10
2018,07,15,16,28,33.10
2018,07,15,16,29,33.20
2018,07,15,16,30,33.20
2018,07,15,16,31,33.20
2018,07,15,16,32,33.20
2018,07,15,16,33,33.20
2018,07,15,16,34,33.20
2018,07,15,16,35,33.10
2018,07,15,16,36,33.10
2018,07,15,16,37,33.10
2018,07,15,16,38,33.00
2018,07,15,16,39,33.00
2018,07,15,16,40,33.00
2018,07,15,16,41,33.00
2018,07,15,16,42,33.00
2018,07,15,16,43,33.00
2018,07,15,16,44,32.90
2018,07,15,16,45,32.90
2018,07,15,16,46,32.90
2018,07,15,16,47,32.90
2018,07,15,16,48,32.90
2018,07,15,16,49,32.80
2018,07,15,16,50,32.80
2018,07,15,16,51,32.80
2018,07,15,16,52,32.80
2018,07,15,16,53,32.80
2018,07,15,16,54,32.90
2018,07,15,16,55,32.90
2018,07,15,16,56,32.90
2018,07,15,16,57,32.90
2018,07,15,16,58,32.80
2018,07,15,16,59,32.80
2018,07,15,17,00,32.80
2018,07,15,17,01,32.80
2018,07,15,17,02,32.80
2018,07,15,17,03,32.80
2018,07,15,17,04,32.80
2018,07,15,17,05,32.90
2018,07,15,17,06,32.90
2018,07,15,17,07,32.90
2018,07,15,17,08,32.90
2018,07,15,17,09,32.90
2018,07,15,17,10,33.00
2018,07,15,17,11,33.00
2018,07,15,17,12,32.90
2018,07,15,17,13,32.90
2018,07,15,17,14,32.90
2018,07,15,17,15,32.90
2018,07,15,17,16,32.90
2018,07,15,17,17,32.90
2018,07,15,17,18,32.80
2018,07,15,17,19,32.80